{"data":{"norad_id":66076,"epoch":"2026-05-25T00:12:09.979776Z","epoch_age_seconds":88394,"freshness":"FRESH","line1":"1 66076U 25235U   26145.00844884  .00019234  00000+0  65979-3 0  9993","line2":"2 66076  53.1597 250.9607 0001158  84.1288 275.9845 15.30201496 34606","mean_motion":15.30201496,"eccentricity":0.0001158,"inclination_deg":53.1597,"raan_deg":250.9607,"arg_perigee_deg":84.1288,"mean_anomaly_deg":275.9845,"bstar":0.00065979,"rev_number":3460,"period_min":94.105253704444,"perigee_km":474.41698498423,"apogee_km":476.00422028901,"semimajor_km":6853.3476026366,"source":"CELESTRAK","updated_at":"2026-05-25T13:38:21.024048Z"}}